[[{"header":{"parameterUnit":"m.s-1","parameterCategory":1,"la1":30.2991,"la2":30.254,"lo1":-89.0895,"lo2":-89.0444,"dy":0.0017,"dx":0.0017,"nx":28,"ny":28,"refTime":"2024-07-26T21:00:00:Z","depth":0,"parameterNumber":2,"parameterNumberName":"U-component_of_WINDS"},"data":[0,0,0,0,0,0,0,0,0,0,0,0,0,0,0,0,0,0,0,0,0,0,0,0,0,0,0,0,0,0,0,0,0,0,0,0,0,0,0,0,0,0,0,0,0,0,0,0,0,0,0,0,0,0,0,0,0,0,-0.485,-0.4849,0,-0.4764,-0.4763,-0.4762,-0.4729,-0.4729,-0.473,-0.473,-0.4638,-0.4636,-0.4633,0,0,0,0,0,0,0,0,0,0,0,0,0,-0.4986,-0.4984,-0.4851,-0.4849,-0.4848,-0.4764,-0.4763,-0.4762,-0.4729,-0.4729,-0.473,-0.473,-0.4639,-0.4636,-0.4633,0,0,0,0,0,0,0,0,0,0,0,0,0,-0.4916,-0.4983,-0.4851,-0.4822,-0.4819,-0.4764,-0.4763,-0.4761,-0.4729,-0.4729,-0.473,-0.473,-0.464,-0.4636,-0.4632,-0.4599,0,0,-0.462,-0.4618,0,0,0,0,0,0,0,0,-0.492,-0.4911,-0.4827,-0.4824,-0.482,-0.4758,-0.4777,-0.4707,-0.4729,-0.4763,-0.473,-0.473,-0.4678,-0.4671,-0.4653,-0.4595,-0.4591,-0.462,-0.4617,-0.4616,-0.4614,0,0,0,0,0,0,0,-0.4925,-0.4915,-0.4816,-0.4826,-0.4822,-0.4813,-0.4803,-0.4764,-0.4719,-0.476,-0.4757,-0.4748,-0.4676,-0.4657,-0.4651,-0.459,-0.462,-0.4616,-0.4614,-0.4612,-0.4501,-0.45,0,0,0,0,0,0,-0.4935,-0.4919,-0.4819,-0.4814,-0.4872,-0.481,-0.48,-0.4777,-0.4719,-0.4711,-0.4748,-0.4747,-0.4664,-0.4656,-0.4648,-0.4605,-0.4616,-0.4612,-0.461,-0.4501,-0.4501,-0.45,0,0,0,0,0,0,-0.4938,-0.4926,-0.4822,-0.4866,-0.4852,-0.4807,-0.4783,-0.4775,-0.4757,-0.471,-0.4702,-0.4737,-0.4664,-0.4653,-0.4612,-0.4601,-0.461,-0.4606,-0.4502,-0.4501,-0.45,-0.452,0,0,0,0,0,0,-0.4942,-0.4928,-0.4915,-0.4866,-0.485,-0.4789,-0.4782,-0.4773,-0.475,-0.4748,-0.4698,-0.469,-0.4663,-0.4618,-0.4608,-0.4596,-0.4603,-0.4503,-0.4502,-0.4501,-0.452,-0.452,-0.452,0,0,0,0,0,-0.4947,-0.4923,-0.4914,-0.4902,-0.4833,-0.4788,-0.4779,-0.475,-0.475,-0.4736,-0.4706,-0.4691,-0.4605,-0.4614,-0.4602,-0.4589,-0.4503,-0.4502,-0.4501,-0.452,-0.452,-0.452,0,0,0,0,0,0,-0.497,-0.4916,-0.4906,-0.4865,-0.4832,-0.4783,-0.4765,-0.475,-0.4715,-0.4715,-0.468,-0.4669,-0.463,-0.4606,-0.4617,-0.4554,-0.4553,-0.4549,-0.4571,-0.4571,-0.4571,-0.4577,-0.46,0,0,0,0,0,-0.4971,-0.494,-0.4894,-0.4863,-0.4847,-0.4809,-0.4788,-0.4769,-0.4733,-0.4718,-0.4685,-0.4649,-0.4614,-0.4591,-0.4556,-0.4517,-0.4505,-0.4502,-0.4502,-0.4502,-0.4499,-0.4476,-0.4474,-0.4496,-0.4496,-0.4496,0,0,-0.4972,-0.4938,-0.492,-0.4867,-0.4838,-0.4807,-0.4797,-0.4763,-0.4739,-0.4712,-0.4671,-0.4647,-0.4605,-0.4564,-0.4545,-0.4543,-0.4491,-0.4501,-0.4501,-0.4497,-0.4475,-0.4473,-0.4471,-0.4495,-0.4496,-0.4496,0,0,-0.4956,-0.4928,-0.4899,-0.4872,-0.483,-0.4805,-0.4799,-0.4752,-0.4735,-0.4694,-0.4673,-0.4644,-0.4584,-0.4555,-0.4532,-0.4509,-0.4494,-0.4498,-0.4497,-0.4475,-0.4474,-0.4472,-0.4463,-0.446,-0.4496,-0.4496,-0.4496,0,-0.4962,-0.4914,-0.4886,-0.4854,-0.483,-0.4807,-0.4777,-0.4751,-0.47,-0.4684,-0.4683,-0.4608,-0.4578,-0.4531,-0.4526,-0.4508,-0.4499,-0.4503,-0.4476,-0.4474,-0.4472,-0.4463,-0.446,-0.4497,-0.4496,-0.4496,-0.4496,0,-0.4922,-0.489,-0.4871,-0.4823,-0.4798,-0.4768,-0.4735,-0.4713,-0.4697,-0.4672,-0.4631,-0.4595,-0.4552,-0.454,-0.4523,-0.449,-0.449,-0.4484,-0.4481,-0.4471,-0.4462,-0.4459,-0.4498,-0.4497,-0.4497,-0.4497,0,0,-0.4916,-0.4856,-0.4849,-0.4827,-0.4781,-0.4754,-0.4723,-0.4683,-0.4665,-0.4631,-0.4603,-0.4554,-0.4548,-0.4522,-0.4502,-0.4484,-0.4467,-0.4479,-0.4478,-0.4477,-0.4428,-0.4433,-0.4429,-0.4458,-0.4457,-0.4456,-0.4432,0,-0.4894,-0.4837,-0.4812,-0.4766,-0.4735,-0.4714,-0.4686,-0.4655,-0.4632,-0.4602,-0.4576,-0.4542,-0.4537,-0.4521,-0.4502,-0.4473,-0.4456,-0.4475,-0.443,-0.4429,-0.444,-0.4424,-0.4428,-0.4406,-0.4428,-0.4427,-0.4427,0,-0.4859,-0.4826,-0.4778,-0.4736,-0.4722,-0.4698,-0.466,-0.4632,-0.4596,-0.458,-0.4554,-0.4535,-0.4501,-0.4503,-0.4455,-0.4468,-0.4449,-0.4432,-0.4431,-0.4424,-0.4426,-0.4416,-0.4399,-0.4395,-0.4421,-0.4421,-0.4422,0,-0.4858,-0.4802,-0.4766,-0.4749,-0.4699,-0.4683,-0.4661,-0.4626,-0.4604,-0.457,-0.4555,-0.4518,-0.4498,-0.4469,-0.4441,-0.4445,-0.4396,-0.4395,-0.4381,-0.4382,-0.437,-0.4371,-0.4348,-0.436,-0.4361,-0.4361,-0.4361,0,-0.4834,-0.4805,-0.4765,-0.4743,-0.471,-0.4682,-0.465,-0.4627,-0.4596,-0.4569,-0.4548,-0.4523,-0.4488,-0.4458,-0.4436,-0.44,-0.4391,-0.4377,-0.4371,-0.4377,-0.4379,-0.4363,-0.4363,-0.436,-0.436,-0.436,-0.436,0,-0.4826,-0.4799,-0.4758,-0.4716,-0.4704,-0.4682,-0.4645,-0.4623,-0.46,-0.4566,-0.4556,-0.452,-0.4483,-0.4454,-0.4406,-0.4391,-0.4353,-0.4347,-0.4365,-0.4362,-0.4349,-0.435,-0.4314,-0.4307,-0.4326,-0.4326,-0.4326,0,-0.4812,-0.4789,-0.4745,-0.4726,-0.4705,-0.4674,-0.4652,-0.4625,-0.4602,-0.4561,-0.4543,-0.4506,-0.4475,-0.4418,-0.4387,-0.4351,-0.4343,-0.4333,-0.4337,-0.4345,-0.4341,-0.4342,-0.4339,-0.4332,-0.4332,-0.4332,-0.4331,0,-0.4789,-0.4777,-0.4746,-0.4711,-0.4686,-0.4657,-0.4627,-0.4612,-0.4579,-0.4555,-0.4519,-0.4495,-0.4448,-0.4411,-0.4372,-0.4349,-0.4334,-0.4331,-0.4326,-0.4331,-0.4342,-0.4335,-0.4363,-0.4331,-0.4331,-0.4331,-0.4331,-0.4331,-0.4776,-0.4755,-0.4721,-0.4688,-0.4664,-0.4637,-0.4614,-0.4589,-0.4559,-0.4519,-0.4505,-0.4467,-0.4433,-0.4379,-0.4357,-0.4327,-0.4325,-0.4317,-0.4315,-0.4313,-0.4314,-0.4349,-0.432,-0.432,-0.432,-0.432,-0.432,0,-0.475,-0.4728,-0.4699,-0.4658,-0.4633,-0.4624,-0.4591,-0.457,-0.4538,-0.4508,-0.4478,-0.4437,-0.4402,-0.4369,-0.4332,-0.4315,-0.4307,-0.4306,-0.4306,-0.4301,-0.4318,-0.4326,-0.4313,-0.4313,-0.4313,-0.4313,-0.4313,-0.4313,-0.4734,-0.4698,-0.4683,-0.4635,-0.4613,-0.4577,-0.456,-0.4535,-0.4511,-0.4466,-0.4438,-0.4417,-0.4386,-0.4347,-0.4315,-0.4306,-0.4293,-0.4293,-0.4282,-0.4298,-0.4299,-0.43,-0.4308,-0.4291,-0.4291,-0.4267,-0.4267,-0.4267]},{"header":{"parameterUnit":"m.s-1","parameterCategory":1,"la1":30.2991,"la2":30.254,"lo1":-89.0895,"lo2":-89.0444,"dy":0.0017,"dx":0.0017,"nx":28,"ny":28,"refTime":"2024-07-26T21:00:00:Z","depth":0,"parameterNumber":3,"parameterNumberName":"V-component_of_WINDS"},"data":[0,0,0,0,0,0,0,0,0,0,0,0,0,0,0,0,0,0,0,0,0,0,0,0,0,0,0,0,0,0,0,0,0,0,0,0,0,0,0,0,0,0,0,0,0,0,0,0,0,0,0,0,0,0,0,0,0,0,2.8434,2.8435,0,2.8517,2.8518,2.8519,2.8517,2.8516,2.8515,2.8514,2.8595,2.8598,2.8601,0,0,0,0,0,0,0,0,0,0,0,0,0,2.827,2.8273,2.8434,2.8435,2.8436,2.8517,2.8518,2.8519,2.8517,2.8516,2.8514,2.8513,2.8594,2.8598,2.8602,0,0,0,0,0,0,0,0,0,0,0,0,0,2.8346,2.8274,2.8434,2.8445,2.8447,2.8517,2.8518,2.8519,2.8517,2.8516,2.8514,2.8512,2.8593,2.8597,2.8602,2.8665,0,0,2.8617,2.8619,0,0,0,0,0,0,0,0,2.8341,2.8352,2.8442,2.8444,2.8446,2.8505,2.849,2.8568,2.8518,2.849,2.8514,2.8512,2.8566,2.8573,2.8592,2.8669,2.8673,2.8617,2.862,2.8622,2.8624,0,0,0,0,0,0,0,2.8336,2.8348,2.8467,2.8443,2.8446,2.8444,2.8453,2.8505,2.8536,2.8493,2.8493,2.8503,2.8567,2.8587,2.8594,2.8674,2.8617,2.8621,2.8624,2.8626,2.8806,2.8808,0,0,0,0,0,0,2.8329,2.8344,2.8464,2.8469,2.8389,2.8449,2.8459,2.8488,2.8536,2.8542,2.8504,2.8502,2.858,2.8588,2.8597,2.8674,2.8622,2.8627,2.8629,2.8804,2.8807,2.8809,0,0,0,0,0,0,2.8325,2.834,2.8461,2.8406,2.8422,2.8453,2.8486,2.849,2.8511,2.8545,2.855,2.852,2.8579,2.859,2.8649,2.8676,2.8629,2.8633,2.8802,2.8805,2.8808,2.8828,0,0,0,0,0,0,2.8321,2.8338,2.8364,2.8407,2.8425,2.8512,2.8488,2.8493,2.852,2.8518,2.8561,2.8566,2.8579,2.8641,2.8653,2.8682,2.8637,2.88,2.8804,2.8807,2.8825,2.8831,2.8837,0,0,0,0,0,2.8315,2.8365,2.8365,2.8379,2.8457,2.8514,2.8523,2.8538,2.8522,2.8547,2.8569,2.8565,2.8672,2.8647,2.8661,2.8692,2.8798,2.8802,2.8807,2.8822,2.883,2.8836,0,0,0,0,0,0,2.8323,2.8371,2.8371,2.8437,2.8472,2.8513,2.8545,2.8546,2.8584,2.8581,2.8596,2.8606,2.8664,2.8684,2.8656,2.8755,2.8733,2.874,2.874,2.8748,2.8753,2.8747,2.8641,0,0,0,0,0,2.8333,2.8376,2.8415,2.847,2.8487,2.8513,2.8538,2.8547,2.8582,2.8596,2.8622,2.8656,2.8697,2.8723,2.8763,2.8828,2.8837,2.8856,2.8862,2.8866,2.8872,2.8907,2.8916,2.8823,2.8823,2.8823,0,0,2.8352,2.8384,2.841,2.8472,2.8499,2.8543,2.8525,2.8572,2.8603,2.8603,2.866,2.868,2.8718,2.878,2.8809,2.8798,2.89,2.8872,2.8875,2.8878,2.8912,2.8921,2.8929,2.8826,2.8825,2.8825,0,0,2.8411,2.844,2.8488,2.8516,2.8559,2.8576,2.8587,2.8629,2.8643,2.8701,2.8701,2.8739,2.881,2.8837,2.886,2.8929,2.8926,2.8941,2.8971,2.9005,2.9013,2.9019,2.9043,2.9051,2.8947,2.8947,2.8947,0,2.843,2.8496,2.8512,2.856,2.8586,2.8589,2.8638,2.8664,2.8716,2.8734,2.8722,2.8811,2.8837,2.8905,2.8922,2.8941,2.8954,2.8936,2.901,2.9017,2.9023,2.9046,2.9055,2.8949,2.8949,2.8948,2.8948,0,2.8517,2.8563,2.8597,2.8649,2.8679,2.8727,2.8749,2.8778,2.8784,2.8802,2.8861,2.8892,2.8938,2.8955,2.8961,2.9024,2.9016,2.9007,2.8985,2.9034,2.9055,2.9064,2.8951,2.895,2.895,2.8949,0,0,2.8581,2.8643,2.8655,2.8678,2.8726,2.8761,2.8808,2.8854,2.8878,2.8915,2.8954,2.9014,2.9006,2.9032,2.9041,2.9071,2.9123,2.9059,2.906,2.9069,2.9193,2.9199,2.9209,2.9122,2.9124,2.9125,2.919,0,2.8644,2.8729,2.8746,2.8819,2.8861,2.8865,2.8906,2.8939,2.8957,2.8994,2.9014,2.9056,2.9043,2.9059,2.9089,2.9111,2.9148,2.9106,2.9157,2.9159,2.9147,2.9221,2.9227,2.9286,2.9199,2.92,2.9201,0,2.8728,2.8768,2.8846,2.8887,2.8905,2.8942,2.8986,2.9022,2.9059,2.907,2.91,2.9106,2.9154,2.913,2.9196,2.9167,2.9189,2.9202,2.9205,2.9209,2.9182,2.9226,2.9305,2.9314,2.9215,2.9214,2.9213,0,2.8766,2.8839,2.8895,2.8915,2.8965,2.8991,2.9013,2.9048,2.9075,2.9113,2.913,2.9173,2.9196,2.9228,2.9245,2.9226,2.9309,2.9287,2.9318,2.9318,2.9335,2.9333,2.9418,2.9351,2.9351,2.935,2.935,0,2.8833,2.888,2.8913,2.8947,2.9,2.9018,2.907,2.9091,2.9122,2.916,2.9166,2.9201,2.9221,2.9259,2.9272,2.9324,2.9335,2.9344,2.9347,2.9343,2.9342,2.9357,2.9352,2.9353,2.9352,2.9352,2.9351,0,2.8884,2.8908,2.8969,2.9012,2.9024,2.9061,2.9097,2.913,2.9149,2.9196,2.9208,2.9237,2.9282,2.9302,2.9357,2.9366,2.9425,2.9425,2.9412,2.9413,2.9443,2.944,2.954,2.9553,2.9478,2.9479,2.9479,0,2.8925,2.8962,2.9009,2.9035,2.9058,2.91,2.9128,2.9147,2.9176,2.9221,2.9248,2.9293,2.933,2.9401,2.9426,2.9468,2.9469,2.9501,2.9475,2.947,2.9468,2.9465,2.9469,2.9505,2.9506,2.9507,2.9507,0,2.8995,2.9005,2.9045,2.909,2.9123,2.9159,2.9194,2.9215,2.924,2.9271,2.9318,2.9347,2.9403,2.9447,2.9491,2.9512,2.9513,2.9515,2.9525,2.952,2.9511,2.9516,2.9424,2.9513,2.9512,2.9512,2.9511,2.9511,2.9041,2.9074,2.9112,2.9157,2.9186,2.9218,2.9252,2.9275,2.9315,2.9363,2.9372,2.9421,2.9457,2.9516,2.9538,2.9576,2.9568,2.9582,2.9585,2.9588,2.9589,2.9507,2.9584,2.9584,2.9584,2.9584,2.9584,0,2.911,2.9135,2.9177,2.9226,2.9261,2.9261,2.93,2.9329,2.9373,2.9406,2.9443,2.9496,2.954,2.9569,2.9612,2.9637,2.9638,2.9647,2.9645,2.965,2.9594,2.9582,2.9645,2.9645,2.9645,2.9645,2.9645,2.9645,2.915,2.9205,2.922,2.9289,2.9314,2.9363,2.9385,2.9415,2.9442,2.9501,2.9538,2.9557,2.9589,2.9635,2.9674,2.9681,2.9696,2.9706,2.9712,2.966,2.9654,2.9647,2.9635,2.9709,2.9709,2.9764,2.9765,2.9765]}]]